Regional Weather Roundup
Issued by NWS Cleveland, OH

Home | Current Version | Previous Version | Graphics & Text | Print | Product List | Glossary On
Versions: 1 2 3 4 5 6 7 8 9 10 11 12 13 14 15 16 17 18 19 20 21 22 23 24 25 26 27 28 29 30 31 32 33 34 35 36 37 38 39 40 41 42 43 44 45 46 47 48 49 50
000
ASUS41 KCLE 301902
RWRCLE
OHIO REGIONAL WEATHER ROUNDUP
NATIONAL WEATHER SERVICE CLEVELAND, OH
300 PM EDT TUE JUN 30 2015

NOTE: "FAIR" INDICATES FEW OR NO CLOUDS BELOW 12,000 FEET WITH NO
SIGNIFICANT WEATHER AND/OR OBSTRUCTIONS TO VISIBILITY.

OHZ001>008-015>018-024>027-034-035-043-044-302000-
   NORTHWEST OHIO

CITY           SKY/WX    TMP DP  RH WIND       PRES   REMARKS
DEFIANCE       CLOUDY    74  64  71 VRB6      29.79F
FINDLAY        CLOUDY    70  64  81 W9        29.79F
TOLEDO EXPRESS CLOUDY    71  62  73 SW6       29.78F
TOLEDO EXEC    CLOUDY    72  62  71 SW10      29.79F
LIMA           CLOUDY    73  64  73 W10       29.80F
$$

OHZ009>014-019>023-028>033-038-089-302000-
   NORTHEAST OHIO

CITY           SKY/WX    TMP DP  RH WIND       PRES   REMARKS
CLE-HOPKINS    PTSUNNY   77  61  57 W8        29.79F
CLE-LAKEFRONT  MOSUNNY   72  62  71 N5        29.78F
CUY CO. ARPT   MOSUNNY   75  63  64 NW8       29.79F
LORAIN-ELYRIA  LGT RAIN  73  60  63 W10       29.78F
ASHTABULA      PTSUNNY   73  61  65 VRB6      29.79F
AKRON-CANTON   LGT RAIN  72  65  78 W5        29.79F
WOOSTER        PTSUNNY   73  62  68 NW6       29.78F
MANSFIELD      LGT RAIN  63  62  97 W3        29.81S FOG
YOUNGSTOWN     PTSUNNY   75  60  59 SW12G20   29.80F
$$

OHZ042-051>053-060>062-070>072-077>081-302000-
  SOUTHWEST OHIO

CITY           SKY/WX    TMP DP  RH WIND       PRES   REMARKS
CINC-COVINGTON TSTM      65  61  87 SW10      29.84F
CINC-LUNKEN    TSTM      66  32  28 NW8G17    29.82F
HAMILTON       CLOUDY    72  65  78 SW7       29.83F
DAYTON         CLOUDY    76  63  64 W17       29.82F
WRIGHT-PAT AFB NOT AVBL
DAYTON GENERAL CLOUDY    73  66  78 SW10      29.82F
WILMINGTON     CLOUDY    68  62  81 S10       29.84F THUNDER
$$

OHZ036-037-039>041-045>050-054>059-063>069-073>076-082>088-302000-
  CENTRAL AND SOUTHEAST OHIO

CITY           SKY/WX    TMP DP  RH WIND       PRES   REMARKS
COLUMBUS       CLOUDY    70  65  84 SW12G17   29.81S
OSU AIRPORT    CLOUDY    72  65  78 SW7       29.80F
BOLTON FIELD   MOSUNNY   73  66  78 SW15      29.81F
RICKENBACK AFB NOT AVBL
NEWARK         TSTM      63  58  83 CALM      29.80S
MARION         CLOUDY    68  63  84 NW8       29.81F
LANCASTER      CLOUDY    71  62  73 SW12G24   29.83S
ZANESVILLE     NOT AVBL
NEW PHILLY     MOSUNNY   76  64  66 VRB7G16   29.80F
$$


USA.gov is the U.S. government's official web portal to all federal, state and local government web resources and services.